Location: ????????
(55.4000°N, 39.1167°E)
Time: 13:39:33
(UTC+00:00)

COBE Rocket - Pass Details

Date: 19 May 2025
Orbit: 676 x 772 km, 97.1° (Epoch: 20 June)

Event Time Altitude Azimuth Distance (km) Brightness Sun altitude
Rises 20:09:45 0° 12° (NNE) 3,223 8.4 -13.2°
Reaches altitude 10° 20:12:02 10° 12° (NNE) 2,304 7.5 -13.3°
Maximum altitude 20:17:08 79° 287° (WNW) 791 4.1 -13.5°
Enters shadow 20:21:40 14° 202° (SSW) 2,079 5.8 -13.6°
